Location: Launay
(47.2429°N, 1.5727°E)
Time: 14:04:22
(UTC+00:00)

NOSS 3-1 (A) - Pass Details

Date: 19 May 2025
Orbit: 667 x 1541 km, 63.4° (Epoch: 14 June)

Event Time Altitude Azimuth Distance (km) Brightness Sun altitude
Exits shadow 20:49:58 16° 146° (SE) 1,839 4.3 -11.5°
Maximum altitude 20:52:16 21° 110° (ESE) 1,629 4.2 -11.8°
Drops below altitude 10° 20:56:19 10° 62° (ENE) 2,431 5.5 -12.3°
Sets 20:59:31 0° 48° (NE) 3,517 6.4 -12.6°
